Regional Weather Roundup
Issued by NWS

Home | Current Version | Previous Version | Graphics & Text | Print | Product List | Glossary Off
Versions: 1 2 3 4 5 6 7 8 9 10 11 12 13 14 15 16 17 18 19 20 21 22 23 24 25 26 27 28 29 30 31 32 33 34 35 36 37 38 39 40 41 42 43 44 45 46 47 48 49 50

000
ASUS43 KTOP 171459
RWRKS

WEATHER ROUNDUP FOR KANSAS
NATIONAL WEATHER SERVICE GOODLAND KS
900 AM CST WED JAN 17 2018

NOTE:  "FAIR" INDICATES FEW OR NO CLOUDS BELOW 12,000 FEET WITH NO
SIGNIFICANT WEATHER AND/OR OBSTRUCTIONS TO VISIBILITY.

KSZ001>006-013>018-027>032-041>047-171600-
NORTHWEST KANSAS

CITY           SKY/WX    TMP DP  RH WIND       PRES   REMARKS
GOODLAND       CLEAR     19   4  51 SW9       30.27S
HAYS           CLOUDY     9   4  80 SW5       30.48S
HILL CITY      CLOUDY    10   0  63 S6        30.43S
RUSSELL        CLOUDY     9   1  70 S13       30.48S WCI  -7
$$

KSZ061>065-074>080-084>089-171600-
SOUTHWEST KANSAS

CITY           SKY/WX    TMP DP  RH WIND       PRES   REMARKS
DODGE CITY     CLOUDY    10  -3  55 S13       30.42F WCI  -5
GARDEN CITY    CLOUDY     8  -3  61 S9        30.38S
LIBERAL        CLOUDY    13   0  56 SW10      30.40S WCI   0
$$

KSZ066>073-081>083-090>101-171600-
SOUTHEAST KANSAS

CITY           SKY/WX    TMP DP  RH WIND       PRES   REMARKS
CHANUTE        CLOUDY     5   2  87 S6        30.69R
COFFEYVILLE    CLOUDY     3   1  91 S3        30.74R
HUTCHINSON     CLOUDY     9   5  84 S7        30.57S
MEDICINE LODGE   N/A      8   0  69 SE5       30.58S
PARSONS        CLOUDY     4   2  91 VRB3      30.72R
WICHITA INTL   CLOUDY     8   4  83 S8        30.62S
WICHITA JABRA  CLOUDY    10   6  84 S8        30.61S
WINFIELD       CLOUDY     8   6  92 S6        30.67S
$$

KSZ007>012-019>026-033>040-048>060-102>105-171600-
NORTHEAST KANSAS

CITY           SKY/WX    TMP DP  RH WIND       PRES   REMARKS
EMPORIA        CLOUDY     8   3  80 SW9       30.63S
LAWRENCE       CLOUDY     2  -1  88 CALM      30.67R
MANHATTAN      CLOUDY     7   2  80 SW6       30.63R
OLATHE IND     CLOUDY     6   2  83 SW9       30.66R
OLATHE EXE     CLOUDY     5   2  87 SW6       30.65R
SALINA         CLOUDY     8   3  80 S8        30.59R
TOPEKA BILLARD CLOUDY     2  -2  83 CALM      30.66R
TOPEKA FORBES  CLOUDY     6   2  83 S7        30.64R
$$




USA.gov is the U.S. government's official web portal to all federal, state and local government web resources and services.